| time (UTC) | temp C | wind direction | speed KPH | gust KPH | rain 1hr cm | rain 24hr cm | rain mn cm | humidity % | barometer mb |
| 20260504001738 | 23 | 21 | 1.6 | 6.4 | 0.00 | 0.00 | 0.00 | 45 | 1010.3 |
| 20260504001233 | 24 | 315 | 1.6 | 6.4 | 0.00 | 0.00 | 0.00 | 44 | 1010.3 |
| 20260504000721 | 24 | 306 | 1.6 | 8.0 | 0.00 | 0.00 | 0.00 | 44 | 1010.3 |
| 20260504000219 | 23 | 304 | 1.6 | 8.0 | 0.00 | 0.00 | 0.00 | 44 | 1010.4 |
| 20260503235717 | 23 | 302 | 1.6 | 8.0 | 0.00 | 0.00 | 0.00 | 46 | 1010.5 |
| 20260503235217 | 23 | 355 | 3.2 | 8.0 | 0.00 | 0.00 | 0.00 | 46 | 1010.5 |
| 20260503234717 | 23 | 348 | 3.2 | 4.8 | 0.00 | 0.00 | 0.00 | 44 | 1010.6 |
| 20260503234218 | 24 | 221 | 3.2 | 6.4 | 0.00 | 0.00 | 0.00 | 44 | 1010.6 |
| 20260503233717 | 24 | 308 | 3.2 | 9.7 | 0.00 | 0.00 | 0.00 | 44 | 1010.6 |
| 20260503232718 | 24 | 290 | 3.2 | 9.7 | 0.00 | 0.00 | 0.00 | 43 | 1010.9 |
| 20260503232216 | 24 | 306 | 3.2 | 6.4 | 0.00 | 0.00 | 0.00 | 44 | 1011.0 |
| 20260503231219 | 24 | 235 | 3.2 | 9.7 | 0.00 | 0.00 | 0.00 | 44 | 1011.1 |
| 20260503230213 | 24 | 84 | 3.2 | 9.7 | 0.00 | 0.00 | 0.00 | 41 | 1011.2 |
| 20260503224712 | 24 | 285 | 4.8 | 14.5 | 0.00 | 0.00 | 0.00 | 43 | 1011.5 |
| 20260503224212 | 23 | 345 | 4.8 | 14.5 | 0.00 | 0.00 | 0.00 | 42 | 1011.5 |
| 20260503223711 | 23 | 286 | 4.8 | 12.9 | 0.00 | 0.00 | 0.00 | 44 | 1011.6 |
| 20260503222709 | 23 | 261 | 3.2 | 16.1 | 0.00 | 0.00 | 0.00 | 45 | 1011.7 |
| 20260503222209 | 23 | 249 | 4.8 | 16.1 | 0.00 | 0.00 | 0.00 | 45 | 1011.7 |
| 20260503221709 | 23 | 324 | 3.2 | 14.5 | 0.00 | 0.00 | 0.00 | 46 | 1011.8 |
| 20260503221209 | 23 | 5 | 3.2 | 9.7 | 0.00 | 0.00 | 0.00 | 46 | 1011.9 |
| 20260503215710 | 23 | 314 | 4.8 | 12.9 | 0.00 | 0.00 | 0.00 | 42 | 1012.0 |
| 20260503215210 | 23 | 318 | 4.8 | 12.9 | 0.00 | 0.00 | 0.00 | 45 | 1012.1 |
| 20260503214210 | 23 | 355 | 3.2 | 9.7 | 0.00 | 0.00 | 0.00 | 43 | 1012.1 |
| 20260503213708 | 23 | 314 | 4.8 | 12.9 | 0.00 | 0.00 | 0.00 | 43 | 1012.2 |
| 20260503213207 | 23 | 355 | 4.8 | 12.9 | 0.00 | 0.00 | 0.00 | 45 | 1012.2 |
| 20260503212708 | 23 | 304 | 4.8 | 12.9 | 0.00 | 0.00 | 0.00 | 45 | 1012.3 |
| 20260503212207 | 22 | 290 | 3.2 | 9.7 | 0.00 | 0.00 | 0.00 | 45 | 1012.3 |
| 20260503211206 | 23 | 290 | 4.8 | 14.5 | 0.00 | 0.00 | 0.00 | 46 | 1012.3 |
| 20260503210201 | 22 | 317 | 4.8 | 12.9 | 0.00 | 0.00 | 0.00 | 47 | 1012.5 |
| 20260503205201 | 22 | 310 | 4.8 | 12.9 | 0.00 | 0.00 | 0.00 | 47 | 1012.6 |
| 20260503204659 | 22 | 317 | 3.2 | 11.3 | 0.00 | 0.00 | 0.00 | 47 | 1012.6 |
| 20260503204200 | 22 | 336 | 4.8 | 11.3 | 0.00 | 0.00 | 0.00 | 47 | 1012.7 |
| 20260503203700 | 22 | 273 | 4.8 | 11.3 | 0.00 | 0.00 | 0.00 | 47 | 1012.7 |
| 20260503203158 | 22 | 324 | 4.8 | 11.3 | 0.00 | 0.00 | 0.00 | 48 | 1012.8 |
| 20260503202658 | 22 | 329 | 3.2 | 8.0 | 0.00 | 0.00 | 0.00 | 49 | 1012.9 |
| 20260503201655 | 22 | 327 | 4.8 | 9.7 | 0.00 | 0.00 | 0.00 | 46 | 1013.0 |
| 20260503201155 | 22 | 339 | 3.2 | 9.7 | 0.00 | 0.00 | 0.00 | 47 | 1013.0 |
| 20260503200655 | 22 | 338 | 4.8 | 11.3 | 0.00 | 0.00 | 0.00 | 48 | 1013.1 |
| 20260503200155 | 21 | 57 | 4.8 | 16.1 | 0.00 | 0.00 | 0.00 | 48 | 1013.2 |
| 20260503195653 | 21 | 319 | 4.8 | 16.1 | 0.00 | 0.00 | 0.00 | 50 | 1013.2 |
| 20260503194653 | 21 | 309 | 4.8 | 12.9 | 0.00 | 0.00 | 0.00 | 51 | 1013.3 |
| 20260503194153 | 21 | 295 | 4.8 | 12.9 | 0.00 | 0.00 | 0.00 | 51 | 1013.3 |
| 20260503193653 | 21 | 347 | 3.2 | 12.9 | 0.00 | 0.00 | 0.00 | 52 | 1013.4 |
| 20260503193151 | 20 | 319 | 3.2 | 8.0 | 0.00 | 0.00 | 0.00 | 54 | 1013.5 |
| 20260503192649 | 20 | 286 | 3.2 | 6.4 | 0.00 | 0.00 | 0.00 | 53 | 1013.6 |
| 20260503191644 | 20 | 300 | 3.2 | 9.7 | 0.00 | 0.00 | 0.00 | 55 | 1013.7 |
| 20260503191144 | 21 | 344 | 4.8 | 12.9 | 0.00 | 0.00 | 0.00 | 55 | 1013.8 |
| 20260503190644 | 21 | 329 | 4.8 | 12.9 | 0.00 | 0.00 | 0.00 | 51 | 1013.8 |
| 20260503190141 | 21 | 277 | 4.8 | 12.9 | 0.00 | 0.00 | 0.00 | 51 | 1013.9 |
| 20260503185639 | 21 | 5 | 3.2 | 9.7 | 0.00 | 0.00 | 0.00 | 51 | 1013.9 |
| 20260503185138 | 21 | 25 | 3.2 | 11.3 | 0.00 | 0.00 | 0.00 | 52 | 1013.9 |
| 20260503184639 | 21 | 27 | 3.2 | 11.3 | 0.00 | 0.00 | 0.00 | 52 | 1014.0 |
| 20260503184137 | 21 | 340 | 3.2 | 11.3 | 0.00 | 0.00 | 0.00 | 51 | 1014.1 |
| 20260503183637 | 21 | 309 | 3.2 | 9.7 | 0.00 | 0.00 | 0.00 | 51 | 1014.1 |
| 20260503181640 | 20 | 254 | 3.2 | 9.7 | 0.00 | 0.00 | 0.00 | 53 | 1014.2 |
| 20260503180640 | 20 | 292 | 3.2 | 11.3 | 0.00 | 0.00 | 0.00 | 56 | 1014.2 |
| 20260503180141 | 20 | 325 | 3.2 | 11.3 | 0.00 | 0.00 | 0.00 | 55 | 1014.2 |
| 20260503175634 | 20 | 294 | 3.2 | 9.7 | 0.00 | 0.00 | 0.00 | 57 | 1014.3 |
| 20260503175125 | 19 | 5 | 1.6 | 9.7 | 0.00 | 0.00 | 0.00 | 59 | 1014.3 |
| 20260503174122 | 18 | 284 | 3.2 | 6.4 | 0.00 | 0.00 | 0.00 | 60 | 1014.4 |
| 20260503172619 | 18 | 294 | 3.2 | 6.4 | 0.00 | 0.00 | 0.00 | 60 | 1014.5 |
| 20260503172120 | 18 | 272 | 3.2 | 8.0 | 0.00 | 0.00 | 0.00 | 61 | 1014.5 |
| 20260503171618 | 18 | 318 | 3.2 | 6.4 | 0.00 | 0.00 | 0.00 | 61 | 1014.4 |
| 20260503171120 | 18 | 289 | 3.2 | 8.0 | 0.00 | 0.00 | 0.00 | 60 | 1014.4 |
| 20260503170620 | 18 | 277 | 3.2 | 8.0 | 0.00 | 0.00 | 0.00 | 60 | 1014.4 |
| 20260503170117 | 18 | 300 | 3.2 | 8.0 | 0.00 | 0.00 | 0.00 | 58 | 1014.5 |
| 20260503150605 | 16 | 310 | 3.2 | 6.4 | 0.00 | 0.00 | 0.00 | 61 | 1014.6 |
| 20260503150105 | 16 | 308 | 3.2 | 6.4 | 0.00 | 0.00 | 0.00 | 62 | 1014.6 |
| 20260503131044 | 14 | 73 | 1.6 | 6.4 | 0.00 | 0.00 | 0.00 | 66 | 1014.4 |
| 20260503130544 | 14 | 92 | 1.6 | 6.4 | 0.00 | 0.00 | 0.00 | 66 | 1014.4 |
| 20260503110507 | 14 | 211 | 0.0 | 3.2 | 0.00 | 0.00 | 0.00 | 62 | 1014.7 |
| 20260503081454 | 17 | 39 | 3.2 | 11.3 | 0.00 | 0.00 | 0.00 | 49 | 1014.7 |
| 20260503072444 | 18 | 74 | 4.8 | 12.9 | 0.00 | 0.00 | 0.00 | 48 | 1014.7 |
| 20260503071944 | 18 | 69 | 4.8 | 11.3 | 0.00 | 0.00 | 0.00 | 48 | 1014.7 |
| 20260503071443 | 18 | 62 | 3.2 | 11.3 | 0.00 | 0.03 | 0.00 | 48 | 1014.7 |
| 20260503070940 | 18 | 88 | 3.2 | 11.3 | 0.00 | 0.03 | 0.00 | 49 | 1014.7 |
| 20260503070440 | 18 | 90 | 4.8 | 11.3 | 0.00 | 0.03 | 0.00 | 48 | 1014.7 |
| 20260503054430 | 18 | 118 | 4.8 | 11.3 | 0.00 | 0.03 | 0.03 | 47 | 1014.5 |
| 20260503053926 | 18 | 58 | 4.8 | 9.7 | 0.00 | 0.03 | 0.03 | 48 | 1014.5 |
| 20260503053426 | 18 | 55 | 4.8 | 12.9 | 0.00 | 0.03 | 0.03 | 48 | 1014.5 |
| 20260503052926 | 18 | 152 | 4.8 | 12.9 | 0.00 | 0.03 | 0.03 | 48 | 1014.6 |
| 20260503052427 | 18 | 57 | 4.8 | 12.9 | 0.00 | 0.03 | 0.03 | 48 | 1014.5 |
| 20260503051426 | 18 | 61 | 3.2 | 9.7 | 0.00 | 0.03 | 0.03 | 48 | 1014.4 |
| 20260503050925 | 18 | 61 | 4.8 | 11.3 | 0.00 | 0.03 | 0.03 | 48 | 1014.4 |
| 20260503045420 | 18 | 79 | 3.2 | 12.9 | 0.00 | 0.03 | 0.03 | 48 | 1014.4 |
| 20260503044917 | 18 | 70 | 3.2 | 8.0 | 0.00 | 0.03 | 0.03 | 48 | 1014.5 |
| 20260503044415 | 19 | 100 | 3.2 | 8.0 | 0.00 | 0.03 | 0.03 | 48 | 1014.4 |
| 20260503043413 | 19 | 84 | 3.2 | 14.5 | 0.00 | 0.03 | 0.03 | 48 | 1014.3 |
| 20260503042911 | 19 | 58 | 3.2 | 14.5 | 0.00 | 0.03 | 0.03 | 48 | 1014.3 |
| 20260503042407 | 19 | 321 | 3.2 | 11.3 | 0.00 | 0.03 | 0.03 | 47 | 1014.2 |
| 20260503041402 | 19 | 49 | 3.2 | 11.3 | 0.00 | 0.03 | 0.03 | 48 | 1014.2 |
| 20260503040902 | 19 | 64 | 3.2 | 9.7 | 0.00 | 0.03 | 0.03 | 47 | 1014.1 |
| 20260503040402 | 19 | 270 | 3.2 | 9.7 | 0.00 | 0.03 | 0.03 | 48 | 1014.1 |
| 20260503035902 | 19 | 327 | 3.2 | 6.4 | 0.00 | 0.03 | 0.03 | 48 | 1014.0 |
| 20260503035402 | 19 | 69 | 3.2 | 6.4 | 0.00 | 0.03 | 0.03 | 49 | 1013.9 |
| 20260503034902 | 19 | 42 | 3.2 | 6.4 | 0.00 | 0.03 | 0.03 | 49 | 1013.8 |
| 20260503034402 | 19 | 327 | 3.2 | 11.3 | 0.00 | 0.03 | 0.03 | 49 | 1013.8 |
| 20260503033903 | 19 | 267 | 3.2 | 14.5 | 0.00 | 0.03 | 0.03 | 49 | 1013.7 |
| 20260503032905 | 19 | 94 | 1.6 | 6.4 | 0.00 | 0.03 | 0.03 | 51 | 1013.6 |
| 20260503032405 | 19 | 69 | 1.6 | 6.4 | 0.00 | 0.03 | 0.03 | 51 | 1013.5 |
| 20260503031905 | 20 | 317 | 3.2 | 11.3 | 0.00 | 0.03 | 0.03 | 51 | 1013.6 |
| 20260503031405 | 20 | 211 | 3.2 | 11.3 | 0.00 | 0.03 | 0.03 | 51 | 1013.4 |
| 20260503030905 | 20 | 340 | 3.2 | 11.3 | 0.00 | 0.03 | 0.03 | 50 | 1013.4 |
| 20260503030404 | 20 | 355 | 3.2 | 11.3 | 0.00 | 0.03 | 0.03 | 50 | 1013.4 |
| 20260503025903 | 20 | 294 | 3.2 | 8.0 | 0.00 | 0.03 | 0.03 | 50 | 1013.3 |
| 20260503025400 | 20 | 254 | 3.2 | 16.1 | 0.00 | 0.03 | 0.03 | 50 | 1013.3 |
| 20260503024900 | 20 | 333 | 4.8 | 16.1 | 0.00 | 0.03 | 0.03 | 50 | 1013.2 |
| 20260503024401 | 20 | 123 | 4.8 | 9.7 | 0.00 | 0.03 | 0.03 | 50 | 1013.2 |
| 20260503022858 | 20 | 296 | 6.4 | 16.1 | 0.00 | 0.03 | 0.03 | 50 | 1013.1 |
| 20260503021858 | 20 | 320 | 4.8 | 16.1 | 0.00 | 0.03 | 0.03 | 49 | 1013.1 |
| 20260503021358 | 20 | 141 | 4.8 | 16.1 | 0.00 | 0.03 | 0.03 | 49 | 1013.2 |
| 20260503020858 | 20 | 322 | 4.8 | 11.3 | 0.00 | 0.03 | 0.03 | 49 | 1013.1 |
| 20260503020354 | 21 | 44 | 4.8 | 11.3 | 0.00 | 0.03 | 0.03 | 49 | 1013.2 |
| 20260503015854 | 21 | 36 | 4.8 | 16.1 | 0.00 | 0.03 | 0.03 | 49 | 1013.2 |
| 20260503014852 | 21 | 304 | 6.4 | 16.1 | 0.00 | 0.03 | 0.03 | 49 | 1013.3 |
| 20260503014351 | 21 | 340 | 6.4 | 19.3 | 0.00 | 0.03 | 0.03 | 48 | 1013.3 |
| 20260503013351 | 21 | 329 | 6.4 | 17.7 | 0.00 | 0.03 | 0.03 | 49 | 1013.3 |
| 20260503012851 | 21 | 38 | 8.0 | 17.7 | 0.00 | 0.03 | 0.03 | 48 | 1013.3 |
| 20260503010847 | 21 | 348 | 8.0 | 22.5 | 0.00 | 0.03 | 0.03 | 48 | 1013.4 |
| 20260503010347 | 21 | 277 | 8.0 | 22.5 | 0.00 | 0.03 | 0.03 | 48 | 1013.4 |
| 20260503005848 | 21 | 11 | 6.4 | 22.5 | 0.00 | 0.03 | 0.03 | 49 | 1013.5 |
| 20260503004848 | 21 | 296 | 6.4 | 16.1 | 0.00 | 0.03 | 0.03 | 50 | 1013.5 |
| 20260503004348 | 21 | 341 | 6.4 | 20.9 | 0.00 | 0.03 | 0.03 | 49 | 1013.6 |
| 20260503003348 | 21 | 332 | 6.4 | 19.3 | 0.00 | 0.03 | 0.03 | 48 | 1013.7 |
| 20260503002848 | 21 | 293 | 6.4 | 17.7 | 0.00 | 0.03 | 0.03 | 49 | 1013.6 |
| 20260503002347 | 21 | 329 | 8.0 | 20.9 | 0.00 | 0.03 | 0.03 | 49 | 1013.6 |